Regional Weather Roundup
Issued by NWS Newport/Morehead, NC

Current Version | Previous Version | Graphics & Text | Print | Product List | Glossary Off
Versions: 1 2 3 4 5 6 7 8 9 10 11 12 13 14 15 16 17 18 19 20 21 22 23 24 25 26 27 28 29 30 31 32 33 34 35 36 37 38 39 40 41 42 43 44 45 46 47 48 49 50

401
ASUS42 KMHX 060825
RWRMHX
WEATHER ROUNDUP FOR EASTERN NORTH CAROLINA
NATIONAL WEATHER SERVICE NEWPORT/MOREHEAD CITY NC
300 AM EST SAT FEB 06 2016

NOTE: "FAIR" INDICATES FEW OR NO CLOUDS BELOW 12,000 FEET
WITH NO SIGNIFICANT WEATHER AND/OR OBSTRUCTIONS TO VISIBILITY

NCZ015>017-031-032-045>047-102-103-060900-
NORTH COAST

CITY           SKY/WX    TMP DP  RH WIND       PRES   REMARKS
EDENTON        CLEAR     31  29  94 CALM      30.43S
ELIZABETH CITY CLEAR     29  25  85 NW6       30.42S
KITTY HAWK     MOSUNNY   38  27  64 CALM      30.39S
MANTEO         MOCLDY    36  29  76 NE5       30.40S

$$

NCZ045>047-081-094-103-104-060900-
CENTRAL COAST

CITY           SKY/WX    TMP DP  RH WIND       PRES   REMARKS
FRISCO         CLEAR     39  25  57 NE5       30.39F
SWANQUARTER      N/A     32 N/A N/A N1        30.39S

$$

NCZ095-097-098-100-101-060900-
SOUTHERN COAST

CITY           SKY/WX    TMP DP  RH WIND       PRES   REMARKS
BEAUFORT       CLEAR     33  31  92 NE3       30.39F
CEDAR ISLAND     N/A     41 N/A N/A N13       30.44S
JACKSONVILLE   CLEAR     33  30  88 CALM      30.39F
PINEY ISLAND   MOSUNNY  N/A N/A N/A NE6       30.39F
WILMINGTON     CLEAR     32  30  92 CALM      30.40S


$$

NCZ011>013-027>030-043-044-078>080-089-090>093-098-060900-
COASTAL PLAIN

CITY           SKY/WX    TMP DP  RH WIND       PRES   REMARKS
AHOSKIE        PTCLDY    27  26  93 CALM      30.42S
CLINTON        PTCLDY    31  30  99 CALM      30.41S
ELIZABETHTOWN  CLEAR     32  29  89 CALM      30.40S
GOLDSBORO      CLEAR     30  30 100 CALM      30.40R
GREENVILLE     CLEAR     28  28 100 CALM      30.42R
HAVELOCK       CLEAR     33  30  88 CALM      30.41S
KENANSVILLE      N/A     27  27 100 CALM      30.41F
KINSTON        CLEAR     29  28  96 CALM      30.42R
NEW BERN       CLEAR     31  28  89 CALM      30.41F
RICHLANDS      CLEAR     28  23  80 CALM      30.40S
ROCKY MOUNT    FOG       28  26  92 CALM      30.43R VSB 3/4
WASHINGTON     CLEAR     32  27  83 CALM      30.42R
WHITEVILLE     PTCLDY    31  30  93 CALM      30.39S

$$

AMZ130-135-150-152-154-156-158-170-250-252-270-ANZ085-086-088-633-658-670-060900-
MARINE OBSERVATIONS

STATION/POSITION TIME  TEMP    WIND        PRES    WAVE   SWELL
                       AIR SEA DIR/SP/G            HT/PER HT/PER
                 (UTC) (F)     (DEG/KT/KT) (MB)    (FT/S) (FT/S)
CHESAPEAKE LIGHT 0800   39      20/ 13/ 15 1030.0
64 E VA BEACH    0750   43 53   20/ 10/ 16 1028.6    8/10   8/10
DUCK             0800   41 45   10/  8/ 11 1028.8
2 E DUCK         0811      45                N/A     4/ 9   2/11
OREGON INLET     0800   41 46  360/  5/  9 1029.1
13E OREGON INLT  0800      47                N/A     6/ 9   2/11
HATTERAS CG      0800   42 54   10/ 15/ 17 1028.5
DIAMOND BUOY     0750   45 73   10/ 14/ 19 1028.6    7/10   7/10
CAPE LOOKOUT     NOT AVBL
BEAUFORT LAB     0800   38 51   40/  3/  4 1028.2
30 SE NEW RVR IN 0808   46 65              1027.5
30 SE NEW RVR IN 0755      65                N/A     3/ 9   2/11
27 SE WRIGHTSVLE 0808   48 69   70/ 10/ 17 1028.0
5 SE WRIGHTSVLE  0708   46 54   60/ 12/ 17 1029.1
225 S CAPE HAT   0750   58 69   60/ 16/ 21   N/A    10/10   8/10
41 SE CHARLESTON 0750   52 67   30/ 14/ 19 1026.4    4/ 9   2/ 9

$$




USA.gov is the U.S. government's official web portal to all federal, state and local government web resources and services.